Weather History for Evanston, WY

Change the Weather History Date:

Thursday, March 7, 2013

  Actual Average Record
Temperature  
Mean Temperature 29 °F 28 °F  
Max Temperature 34 °F 37 °F 49 °F (2007)
Min Temperature 23 °F 19 °F 3 °F (1998)
Degree Days  
Heating Degree Days 36 37  
Month to date heating degree days 245 266  
Since 1 July heating degree days 5840 6274  
Cooling Degree Days 0 0  
Month to date cooling degree days 0 0  
Year to date cooling degree days 0 0  
Moisture  
Dew Point 26 °F    
Average Humidity 81    
Maximum Humidity 92    
Minimum Humidity 69    
Precipitation  
Precipitation 0.05 in 0.02 in 0.05 in (2013)
Month to date precipitation 0.05 0.15  
Year to date precipitation 0.52 1.30  
Sea Level Pressure  
Sea Level Pressure 29.95 in    
Wind  
Wind Speed 9 mph (North)    
Max Wind Speed 16 mph    
Max Gust Speed -    
Visibility 4 miles    
Events Fog , Snow    
T = Trace of Precipitation, MM = Missing Value Source: NWS Daily Summary

Daily Weather History Graph

Daily Weather History Graph

Search for Another Location

Airport:

Trip Planner

Search our weather history database for the weather conditions in past years. The results will help you decide how hot, cold, wet, or windy it might be!

Date:

Astronomy

Mar. 07, 2013 Rise Set
Actual Time 6:48 AM MST 6:22 PM MST
Civil Twilight 6:20 AM MST 6:49 PM MST
Nautical Twilight 5:49 AM MST 7:21 PM MST
Astronomical Twilight 5:16 AM MST 7:53 PM MST
Moon 3:53 AM MST (3/7) 2:11 PM MST (3/7)
Length of Visible Light 12h 28m
Length of Day
11h 33m
Waning Crescent, 19% of the Moon is Illuminated
Mar 7
Waning Crescent
Mar 11
New
Mar 19
First Quarter
Mar 27
Full
Apr 2
Last Quarter

Hourly Weather History & Observations

Time (MST) Temp. Windchill Dew Point Humidity Pressure Visibility Wind Dir Wind Speed Gust Speed Precip Events Conditions
12:16 AM 28.4 °F 16.6 °F 26.6 °F 93% 29.93 in 1.8 mi North 16.1 mph - 0.00 in Snow Light Snow
12:23 AM 28.4 °F 17.0 °F 26.6 °F 93% 29.94 in 2.0 mi North 15.0 mph - 0.00 in Snow Light Snow
12:32 AM 28.4 °F 16.6 °F 26.6 °F 93% 29.94 in 1.8 mi North 16.1 mph - 0.00 in Snow Light Snow
12:34 AM 28.4 °F 17.0 °F 26.6 °F 93% 29.94 in 1.5 mi North 15.0 mph - 0.00 in Snow Light Snow
12:44 AM 28.4 °F 16.2 °F 26.6 °F 93% 29.94 in 1.0 mi North 17.3 mph - 0.00 in Snow Light Snow
12:53 AM 28.0 °F 17.5 °F 26.1 °F 92% 29.90 in 1.0 mi North 12.7 mph - 0.00 in Snow Light Snow
1:07 AM 26.6 °F 15.2 °F 26.6 °F 100% 29.95 in 1.8 mi North 13.8 mph - 0.00 in Snow Light Snow
1:20 AM 26.6 °F 15.2 °F 24.8 °F 93% 29.94 in 1.5 mi North 13.8 mph - 0.00 in Snow Light Snow
1:47 AM 26.6 °F 15.2 °F 24.8 °F 93% 29.95 in 2.0 mi North 13.8 mph - 0.00 in Snow Light Snow
1:53 AM 27.0 °F 16.7 °F 25.0 °F 92% 29.91 in 2.5 mi North 11.5 mph - 0.00 in Snow Light Snow
2:10 AM 26.6 °F 15.7 °F 24.8 °F 93% 29.96 in 1.5 mi North 12.7 mph - 0.00 in Snow Light Snow
2:19 AM 26.6 °F 14.3 °F 24.8 °F 93% 29.95 in 1.8 mi North 16.1 mph - 0.00 in Snow Light Snow
2:27 AM 26.6 °F 13.8 °F 24.8 °F 93% 29.95 in 3.0 mi North 17.3 mph - 0.00 in Snow Light Snow
2:53 AM 25.0 °F 12.6 °F 23.0 °F 92% 29.91 in 4.0 mi NNE 15.0 mph - 0.00 in Snow Light Snow
3:03 AM 24.8 °F 13.4 °F 23.0 °F 93% 29.95 in 2.5 mi NNE 12.7 mph - 0.00 in Snow Light Snow
3:11 AM 24.8 °F 14.6 °F 23.0 °F 93% 29.96 in 4.0 mi NNE 10.4 mph - 0.00 in Snow Light Snow
3:53 AM 24.1 °F 15.2 °F 23.0 °F 96% 29.95 in 6.0 mi North 8.1 mph - 0.00 in Snow Light Snow
4:53 AM 25.0 °F 17.1 °F 21.9 °F 88% 29.96 in 7.0 mi NNE 6.9 mph - 0.00 in Snow Light Snow
5:32 AM 24.8 °F 16.9 °F 21.2 °F 86% 29.97 in 10.0 mi North 6.9 mph - 0.00 in   Overcast
5:42 AM 24.8 °F 17.9 °F 23.0 °F 93% 29.97 in 8.0 mi NE 5.8 mph - 0.00 in   Overcast
5:53 AM 24.1 °F 17.0 °F 23.0 °F 96% 29.96 in 9.0 mi NE 5.8 mph - 0.00 in   Overcast
6:53 AM 24.1 °F 14.4 °F 21.0 °F 88% 29.97 in 3.0 mi ENE 9.2 mph - 0.00 in Snow Light Snow
7:53 AM 24.1 °F 15.2 °F 19.9 °F 84% 29.97 in 10.0 mi ENE 8.1 mph - 0.00 in   Overcast
8:53 AM 25.0 °F - 21.9 °F 88% 30.01 in 10.0 mi Calm Calm - N/A   Scattered Clouds
9:53 AM 27.0 °F 18.7 °F 21.9 °F 81% 29.99 in 10.0 mi North 8.1 mph - N/A   Clear
10:53 AM 28.9 °F 21.9 °F 23.0 °F 78% 29.99 in 10.0 mi North 6.9 mph - 0.05 in   Clear
11:36 AM 30.2 °F 22.6 °F 24.8 °F 80% 29.97 in 10.0 mi NNW 8.1 mph - N/A   Partly Cloudy
11:53 AM 30.9 °F 25.2 °F 25.0 °F 79% 29.98 in 10.0 mi North 5.8 mph - N/A   Partly Cloudy
12:53 PM 30.9 °F 23.5 °F 24.1 °F 76% 29.97 in 10.0 mi North 8.1 mph - N/A   Clear
1:53 PM 33.1 °F 27.7 °F 25.0 °F 72% 29.94 in 10.0 mi North 5.8 mph - N/A   Clear
2:53 PM 34.0 °F 28.0 °F 26.1 °F 73% 29.94 in 10.0 mi NNE 6.9 mph - N/A   Clear
3:53 PM 33.1 °F 27.7 °F 26.1 °F 75% 29.94 in 10.0 mi North 5.8 mph - N/A   Clear
4:53 PM 33.1 °F 26.9 °F 25.0 °F 72% 29.94 in 10.0 mi North 6.9 mph - N/A   Clear
5:53 PM 30.9 °F 24.3 °F 25.0 °F 79% 29.95 in 10.0 mi North 6.9 mph - N/A   Partly Cloudy
6:53 PM 30.0 °F 24.1 °F 25.0 °F 82% 29.99 in 10.0 mi North 5.8 mph - N/A   Overcast
7:53 PM 30.0 °F 24.1 °F 25.0 °F 82% 29.99 in 10.0 mi North 5.8 mph - N/A   Overcast
8:34 PM 30.2 °F 25.4 °F 24.8 °F 80% 29.96 in 2.5 mi North 4.6 mph - 0.00 in Snow Light Snow
8:37 PM 30.2 °F 24.3 °F 26.6 °F 86% 29.96 in 1.5 mi North 5.8 mph - 0.00 in Snow Light Snow
8:50 PM 30.2 °F 25.4 °F 26.6 °F 86% 29.96 in 1.5 mi North 4.6 mph - 0.00 in Snow Light Snow
8:51 PM 30.0 °F 25.2 °F 26.1 °F 85% 29.99 in 1.2 mi North 4.6 mph - 0.00 in Snow Light Snow
9:01 PM 28.4 °F 23.3 °F 26.6 °F 93% 29.95 in 1.8 mi North 4.6 mph - 0.00 in Snow Light Snow
9:05 PM 28.4 °F 24.6 °F 26.6 °F 93% 29.96 in 3.0 mi North 3.5 mph - 0.00 in Snow Light Snow
9:17 PM 30.2 °F - 26.6 °F 86% 29.96 in 2.5 mi Calm Calm - 0.00 in Snow Light Snow
9:33 PM 30.2 °F - 26.6 °F 86% 29.96 in 1.5 mi Calm Calm - 0.00 in Snow Light Snow
9:53 PM 30.0 °F - 28.0 °F 92% 29.98 in 1.0 mi Calm Calm - 0.00 in Snow Light Snow
9:57 PM 30.2 °F 26.7 °F 28.4 °F 93% 29.95 in 0.8 mi NE 3.5 mph - 0.00 in Snow Light Snow
10:05 PM 30.2 °F 26.7 °F 28.4 °F 93% 29.95 in 1.8 mi NE 3.5 mph - 0.00 in Snow Light Snow
10:12 PM 30.2 °F 26.7 °F 28.4 °F 93% 29.94 in 2.5 mi NNE 3.5 mph - 0.00 in Snow Light Snow
10:27 PM 30.2 °F - 28.4 °F 93% 29.94 in 3.0 mi Calm Calm - 0.00 in Snow Light Snow
10:38 PM 30.2 °F - 28.4 °F 93% 29.94 in 2.5 mi Calm Calm - 0.00 in Snow Light Snow
10:49 PM 28.4 °F 24.6 °F 26.6 °F 93% 29.94 in 3.0 mi NNW 3.5 mph - 0.00 in Snow Light Snow
10:50 PM 28.9 °F 25.2 °F 27.0 °F 92% 29.96 in 3.0 mi NNW 3.5 mph - 0.00 in Snow Light Snow
10:53 PM 28.4 °F - 26.6 °F 93% 29.94 in 1.8 mi Calm Calm - 0.00 in Snow Light Snow
10:55 PM 28.4 °F - 26.6 °F 93% 29.94 in 1.0 mi Calm Calm - 0.00 in Snow Light Snow
11:01 PM 28.4 °F - 26.6 °F 93% 29.94 in 0.5 mi Calm Calm - 0.00 in Fog , Snow Light Snow
11:06 PM 28.4 °F - 28.4 °F 100% 29.94 in 1.0 mi Calm Calm - 0.00 in Snow Light Snow
11:09 PM 28.4 °F - 28.4 °F 100% 29.94 in 2.5 mi Calm Calm - 0.00 in Snow Light Snow
11:15 PM 28.4 °F - 28.4 °F 100% 29.94 in 2.0 mi Calm Calm - 0.00 in Snow Light Snow
11:17 PM 28.4 °F - 28.4 °F 100% 29.94 in 1.5 mi Calm Calm - 0.00 in Snow Light Snow
11:21 PM 30.2 °F 26.7 °F 28.4 °F 93% 29.94 in 0.8 mi SW 3.5 mph - 0.00 in Snow Light Snow
11:45 PM 28.4 °F - 26.6 °F 93% 29.93 in 1.2 mi Calm Calm - 0.00 in Snow Light Snow
11:49 PM 28.4 °F - 26.6 °F 93% 29.93 in 1.8 mi Calm Calm - 0.00 in Snow Light Snow
11:53 PM 30.0 °F - 27.0 °F 88% 29.93 in 2.0 mi Calm Calm - 0.00 in Snow Light Snow